Главная страница
METAR-TAF:

METAR-TAF

Аэропорты :

Belmar / Farmingdale, Нью-Джерси, США

широта: 40-11N, долгота: 074-08W, высота над уровнем моря: 48 м

Текущие метеонаблюдения

Эта сводка был подготовлена 11 минут назад, в 01:56 UTC
Ветер 7 Узел от южный-юго-западный
Температура 12°C
Влажность 71%
Давление 1017 hPa
Видимость: 16.1 км
ясное небо

METAR: KBLM 200156Z AUTO 20007KT 10SM CLR 12/07 A3002 RMK AO2 SLP171 T01170067

Время: 22:07 (02:07 UTC)


TAF: отсутствует

Метеонаблюдения и прогнозы для более 4000 аэропортов (сводки METAR и TAF).

Имеющиеся станции представлены на карте желтыми и красными точками.

Чтобы увидеть название станции, наведите на нее мышь.

Затем щелкните, чтобы увидеть метеонаблюдения и метеопрогнозы.

Управление картой: чтобы увеличить масштаб, щелкните зеленые кнопки с черным крестиком; чтобы уменьшить масштаб, щелкните зеленую кнопку с тире; для просмотра соседних карт щелкайте зеленые стрелки.


METAR-TAF: